Location: Spor
(46.2167°N, 11.0500°E)
Time: 07:19:22
(UTC+00:00)

NOSS 2-1 (E) - Pass Details

Date: 07 June 2020
Orbit: 446 x 1757 km, 63.3° (Epoch: 25 June)

Event Time Altitude Azimuth Distance (km) Brightness Sun altitude
Exits shadow 02:05:20 13° 253° (WSW) 1,418 4.9 -10.9°
Maximum altitude 02:08:04 35° 318° (NW) 771 4.1 -10.6°
Drops below altitude 10° 02:11:33 10° 26° (NNE) 1,753 7.3 -10.2°
Sets 02:14:04 0° 36° (NE) 2,783 9.2 -9.9°
